Regional Weather Roundup
Issued by NWS Charleston, WV

Home | Current Version | Previous Version | Graphics & Text | Print | Product List | Glossary On
Versions: 1 2 3 4 5 6 7 8 9 10 11 12 13 14 15 16 17 18 19 20 21 22 23 24 25 26 27 28 29 30 31 32 33 34 35 36 37 38 39 40 41 42 43 44 45 46 47 48 49 50
308
ASUS41 KRLX 130510
RWRRLX
West Virginia Regional Weather Roundup
National Weather Service Charleston WV
1200 AM EST SAT FEB 13 2016

Note: "fair" indicates few or no clouds below 12,000 feet with no
significant weather and/or obstructions to visibility.

WVZ003-130600-
Northern Panhandle of West Virginia

CITY           SKY/WX    TMP DP  RH WIND       PRES   REMARKS
WHEELING         N/A     16   4  59 W10       30.06R WCI   4
$$

WVZ009-130600-
Northwest West Virginia

CITY           SKY/WX    TMP DP  RH WIND       PRES   REMARKS
PARKERSBURG      N/A     18   5  57 NW14G21   30.20R WCI   4
$$

WVZ006-130600-
Western West Virginia

CITY           SKY/WX    TMP DP  RH WIND       PRES   REMARKS
HUNTINGTON     MOCLDY    22  15  75 NW9       30.22R
$$

WVZ015-130600-
West Central West Virginia

CITY           SKY/WX    TMP DP  RH WIND       PRES   REMARKS
CHARLESTON     LGT SNOW  21  15  78 NW16G29   30.17R WCI   7
$$

WVZ022-031-130600-
North Central West Virginia

CITY           SKY/WX    TMP DP  RH WIND       PRES   REMARKS
CLARKSBURG     MIX PCPN  18   7  62 W25G35    30.07R WCI   0
MORGANTOWN     CLOUDY    18   5  57 W13G22    30.04R WCI   5
$$

WVZ025-035-042-045-130600-
Southern West Virginia

CITY           SKY/WX    TMP DP  RH WIND       PRES   REMARKS
BECKLEY        LGT SNOW  18  13  80 NW16G32   30.01R VSB 1   WCI   3
LOGAN          CLOUDY    23  16  74 W9G15     30.12R
BLUEFIELD      LGT SNOW  20  15  81 NW17G28   29.99S WCI   5
LEWISBURG      CLOUDY    24  15  67 W8G20     29.98S
$$

WVZ047-130600-
Northern Mountains of West Virginia

CITY           SKY/WX    TMP DP  RH WIND       PRES   REMARKS
ELKINS         LGT SNOW  19  12  74 W12G26    29.96F VSB 3/4 WCI   7
$$

WVZ052-130600-
Eastern Panhandle of West Virginia

CITY           SKY/WX    TMP DP  RH WIND       PRES   REMARKS
MARTINSBURG      N/A     24  10  55 W12G23    29.97F
PETERSBURG     MOCLDY    25   9  49 W22       29.98F
$$




USA.gov is the U.S. government's official web portal to all federal, state and local government web resources and services.